Weather History for Gastonia, NC

Change the Weather History Date:

Saturday, October 20, 2012

  Actual Average (KCLT) Record (KCLT)
Temperature  
Mean Temperature 56 °F 59 °F  
Max Temperature 71 °F 71 °F 86 °F (1926)
Min Temperature 42 °F 47 °F 30 °F (1972)
Degree Days  
Heating Degree Days 10 7  
Month to date heating degree days 92  
Since 1 July heating degree days 115  
Cooling Degree Days 0 1  
Month to date cooling degree days 33  
Year to date cooling degree days 1508  
Growing Degree Days 6 (Base 50)    
Moisture  
Dew Point 43 °F    
Average Humidity 66    
Maximum Humidity 96    
Minimum Humidity 38    
Precipitation  
Precipitation 0.00 in 0.11 in 2.33 in (1944)
Month to date precipitation 2.30  
Year to date precipitation 34.14  
Snow  
Snow 0.00 in 0.00 in 0.00 in ()
Month to date snowfall 0.0  
Since 1 July snowfall 0.0  
Since 1 September snowfall 0.0  
Snow Depth -    
Sea Level Pressure  
Sea Level Pressure 29.85 in    
Wind  
Wind Speed 1 mph (NNE)    
Max Wind Speed 7 mph    
Max Gust Speed -    
Visibility 10 miles    
Events      
T = Trace of Precipitation, MM = Missing Value Source: NWS Daily Summary

Daily Weather History Graph

Daily Weather History Graph

Search for Another Location

Airport:

Trip Planner

Search our weather history database for the weather conditions in past years. The results will help you decide how hot, cold, wet, or windy it might be!

Date:

Astronomy

Oct. 20, 2012 Rise Set
Actual Time 7:35 AM EDT 6:42 PM EDT
Civil Twilight 7:09 AM EDT 7:08 PM EDT
Nautical Twilight 6:40 AM EDT 7:37 PM EDT
Astronomical Twilight 6:10 AM EDT 8:07 PM EDT
Moon 1:03 PM EDT (10/20) 11:32 PM EDT (10/20)
Length of Visible Light 11h 58m
Length of Day
11h 07m
Waxing Crescent, 34% of the Moon is Illuminated
Oct 20
Waxing Crescent
Oct 21
First Quarter
Oct 29
Full
Nov 6
Last Quarter
Nov 13
New

Hourly Weather History & Observations

Time (EDT) Temp. Dew Point Humidity Pressure Visibility Wind Dir Wind Speed Gust Speed Precip Events Conditions
12:54 AM 46.9 °F 43.0 °F 86% 29.78 in 10.0 mi Calm Calm - N/A   Clear
1:54 AM 45.0 °F 43.0 °F 93% 29.78 in 10.0 mi Calm Calm - N/A   Clear
2:54 AM 45.0 °F 42.1 °F 90% 29.78 in 10.0 mi Calm Calm - N/A   Clear
3:54 AM 44.1 °F 42.1 °F 93% 29.78 in 10.0 mi Calm Calm - N/A   Clear
4:54 AM 44.1 °F 41.0 °F 89% 29.78 in 10.0 mi Calm Calm - N/A   Clear
5:54 AM 43.0 °F 41.0 °F 93% 29.79 in 10.0 mi Calm Calm - N/A   Clear
6:54 AM 42.1 °F 41.0 °F 96% 29.81 in 10.0 mi Calm Calm - N/A   Clear
7:54 AM 42.1 °F 39.9 °F 92% 29.83 in 10.0 mi Calm Calm - N/A   Clear
8:54 AM 48.0 °F 43.0 °F 83% 29.85 in 10.0 mi SW 3.5 mph - N/A   Clear
9:54 AM 55.9 °F 45.0 °F 67% 29.87 in 10.0 mi Calm Calm - N/A   Clear
10:54 AM 62.1 °F 42.1 °F 48% 29.87 in 10.0 mi NE 5.8 mph - N/A   Clear
11:54 AM 64.0 °F 41.0 °F 43% 29.87 in 10.0 mi Variable 3.5 mph - N/A   Clear
12:54 PM 66.0 °F 42.1 °F 42% 29.85 in 10.0 mi Calm Calm - N/A   Clear
1:54 PM 68.0 °F 43.0 °F 40% 29.83 in 10.0 mi Calm Calm - N/A   Clear
2:54 PM 69.1 °F 42.1 °F 38% 29.82 in 10.0 mi Calm Calm - N/A   Clear
3:54 PM 69.1 °F 42.1 °F 38% 29.82 in 10.0 mi Calm Calm - N/A   Clear
4:54 PM 69.1 °F 44.1 °F 40% 29.83 in 10.0 mi WNW 4.6 mph - N/A   Clear
5:54 PM 64.0 °F 48.0 °F 56% 29.85 in 10.0 mi Calm Calm - N/A   Clear
6:54 PM 62.1 °F 48.0 °F 60% 29.88 in 10.0 mi Calm Calm - N/A   Clear
7:54 PM 62.1 °F 45.0 °F 53% 29.92 in 10.0 mi North 6.9 mph - N/A   Scattered Clouds
8:54 PM 59.0 °F 43.0 °F 55% 29.94 in 10.0 mi NNE 5.8 mph - N/A   Clear
9:54 PM 57.9 °F 41.0 °F 53% 29.95 in 10.0 mi NNE 5.8 mph - N/A   Clear
10:54 PM 53.1 °F 42.1 °F 66% 29.96 in 10.0 mi NE 4.6 mph - N/A   Clear
11:54 PM 54.0 °F 43.0 °F 66% 29.98 in 10.0 mi NNE 4.6 mph - N/A   Overcast